Modesto, CA

9:10 AM PDT on October 18, 2017 (GMT -0700)
Modesto City-County-Sham

Weather History for KMOD - June, 2013

Change the Weather History Date:

Monday, June 3, 2013

  Actual Average Record
Temperature  
Mean Temperature 78 °F -  
Max Temperature 93 °F 87 °F 109 °F (1960)
Min Temperature 62 °F 58 °F 45 °F (1943)
Degree Days  
Heating Degree Days 0 0  
Month to date heating degree days 0 0  
Since 1 June heating degree days 0 0  
Since 1 July heating degree days 2148 2168  
Cooling Degree Days 13 8  
Month to date cooling degree days 45 22  
Year to date cooling degree days 291 221  
Since 1 June cooling degree days 45 22  
Growing Degree Days 28 (Base 50)    
Moisture  
Dew Point 52 °F    
Average Humidity 44    
Maximum Humidity 67    
Minimum Humidity 20    
Precipitation  
Precipitation 0.00 in 0.00 in 0.14 in (1945)
Month to date precipitation 0.00 0.02  
Year to date precipitation 3.14 8.65  
Since 1 July precipitation 9.02  
Snow  
Snow 0.00 in - - ()
Month to date snowfall 0.0  
Since 1 June snowfall 0.0  
Since 1 July snowfall 0.0  
Snow Depth -    
Sea Level Pressure  
Sea Level Pressure 29.70 in    
Wind  
Wind Speed 7 mph (NNW)    
Max Wind Speed 16 mph    
Max Gust Speed 23 mph    
Visibility 10 miles    
Events      
T = Trace of Precipitation, MM = Missing Value Source: NWS Daily Summary

Daily Weather History Graph

Daily Weather History Graph

Search for Another Location

Airport or City:

Trip Planner

Search our weather history database for the weather conditions in past years. The results will help you decide how hot, cold, wet, or windy it might be!

Date:

Astronomy

Jun. 03, 2013 Rise Set
Actual Time 5:43 AM PDT 8:21 PM PDT
Civil Twilight 5:12 AM PDT 8:51 PM PDT
Nautical Twilight 4:34 AM PDT 9:30 PM PDT
Astronomical Twilight 3:51 AM PDT 10:13 PM PDT
Moon 2:38 AM PDT (6/3) 4:01 PM PDT (6/3)
Length of Visible Light 15h 39m
Length of Day
14h 37m
Waning Crescent, 21% of the Moon is Illuminated
Jun 3
Waning Crescent
Jun 8
New
Jun 16
First Quarter
Jun 23
Full
Jun 29
Last Quarter

Hourly Weather History & Observations

Time (PDT) Temp. Heat Index Dew Point Humidity Pressure Visibility Wind Dir Wind Speed Gust Speed Precip Events Conditions
12:53 AM 71.1 °F - 52.0 °F 51% 29.64 in 10.0 mi NW 4.6 mph - N/A   Clear
1:53 AM 68.0 °F - 52.0 °F 56% 29.64 in 10.0 mi NW 6.9 mph - N/A   Clear
2:53 AM 66.9 °F - 52.0 °F 59% 29.65 in 10.0 mi NW 6.9 mph - N/A   Clear
3:53 AM 64.9 °F - 52.0 °F 63% 29.65 in 10.0 mi NW 6.9 mph - N/A   Clear
4:53 AM 64.0 °F - 53.1 °F 67% 29.67 in 10.0 mi NW 9.2 mph - N/A   Clear
5:53 AM 62.1 °F - 52.0 °F 70% 29.69 in 10.0 mi NNW 5.8 mph - N/A   Clear
6:53 AM 63.0 °F - 52.0 °F 67% 29.70 in 10.0 mi North 4.6 mph - N/A   Clear
7:53 AM 66.9 °F - 52.0 °F 59% 29.72 in 10.0 mi NNW 4.6 mph - N/A   Clear
8:53 AM 71.1 °F - 52.0 °F 51% 29.73 in 10.0 mi Calm Calm - N/A   Clear
9:53 AM 77.0 °F - 50.0 °F 39% 29.73 in 10.0 mi NW 6.9 mph - N/A   Clear
10:53 AM 79.0 °F - 51.1 °F 38% 29.73 in 10.0 mi WNW 5.8 mph - N/A   Clear
11:53 AM 84.9 °F 83.2 °F 53.1 °F 33% 29.73 in 10.0 mi NW 6.9 mph - N/A   Clear
12:53 PM 86.0 °F 84.2 °F 54.0 °F 33% 29.72 in 10.0 mi Variable 5.8 mph - N/A   Clear
1:53 PM 89.1 °F 86.7 °F 53.1 °F 29% 29.72 in 10.0 mi NNW 10.4 mph - N/A   Clear
2:53 PM 90.0 °F 87.5 °F 53.1 °F 28% 29.71 in 10.0 mi NNW 8.1 mph 16.1 mph N/A   Clear
3:53 PM 93.0 °F - 46.9 °F 20% 29.70 in 10.0 mi NNW 11.5 mph - N/A   Clear
4:53 PM 91.9 °F - 46.9 °F 21% 29.69 in 10.0 mi NW 13.8 mph - N/A   Clear
5:53 PM 90.0 °F - 51.1 °F 26% 29.68 in 10.0 mi NNW 10.4 mph - N/A   Clear
6:53 PM 86.0 °F 84.2 °F 54.0 °F 33% 29.70 in 10.0 mi North 12.7 mph - N/A   Clear
7:53 PM 80.1 °F 80.0 °F 54.0 °F 40% 29.72 in 10.0 mi NNW 11.5 mph - N/A   Clear
8:53 PM 75.0 °F - 52.0 °F 44% 29.73 in 10.0 mi NNW 12.7 mph - N/A   Clear
9:53 PM 72.0 °F - 52.0 °F 49% 29.74 in 10.0 mi NNW 10.4 mph - N/A   Clear
10:53 PM 68.0 °F - 52.0 °F 56% 29.75 in 10.0 mi North 9.2 mph 16.1 mph N/A   Clear
11:53 PM 64.9 °F - 51.1 °F 61% 29.78 in 10.0 mi North 8.1 mph - N/A   Clear